Change the Weather History Date:

Thursday, September 18, 2014

  Actual Average Record
Temperature  
Mean Temperature 81 °F 79 °F  
Max Temperature 90 °F 88 °F 94 °F (1953)
Min Temperature 71 °F 70 °F 61 °F (1952)
Degree Days  
Heating Degree Days 0 0  
Month to date heating degree days 0 0  
Since 1 July heating degree days 0 0  
Cooling Degree Days 16 14  
Month to date cooling degree days 273 254  
Year to date cooling degree days 3161 2796  
Growing Degree Days 30 (Base 50)    
Moisture  
Dew Point 70 °F    
Average Humidity 73    
Maximum Humidity 90    
Minimum Humidity 55    
Precipitation  
Precipitation 0.00 in 0.01 in 0.81 in (1994)
Month to date precipitation 0.66 0.21  
Year to date precipitation 16.31 10.91  
Snow  
Snow 0.00 in - - ()
Month to date snowfall 0.0  
Since 1 July snowfall 0.0  
Since 1 September snowfall 0.0  
Snow Depth 0.00 in    
Sea Level Pressure  
Sea Level Pressure 29.95 in    
Wind  
Wind Speed 8 mph (ENE)    
Max Wind Speed 18 mph    
Max Gust Speed 23 mph    
Visibility 10 miles    
Events      
T = Trace of Precipitation, MM = Missing Value Source: NWS Daily Summary

Daily Weather History Graph

Daily Weather History Graph

Search for Another Location

Airport or City:

Trip Planner

Search our weather history database for the weather conditions in past years. The results will help you decide how hot, cold, wet, or windy it might be!

Date:

Astronomy

Sep. 18, 2014 Rise Set
Actual Time 6:13 AM HST 6:25 PM HST
Civil Twilight 5:51 AM HST 6:47 PM HST
Nautical Twilight 5:25 AM HST 7:13 PM HST
Astronomical Twilight 4:59 AM HST 7:39 PM HST
Moon 1:44 AM HST (9/18) 2:57 PM HST (9/18)
Length of Visible Light 12h 56m
Length of Day
12h 11m
Waning Crescent, 24% of the Moon is Illuminated
Sep 18
Waning Crescent
Sep 23
New
Oct 1
First Quarter
Oct 8
Full
Oct 15
Last Quarter

Hourly Weather History & Observations

Time (HST) Temp. Heat Index Dew Point Humidity Pressure Visibility Wind Dir Wind Speed Gust Speed Precip Events Conditions
12:54 AM 73.0 °F - 69.1 °F 87% 29.96 in 10.0 mi South 3.5 mph - N/A   Clear
1:54 AM 73.0 °F - 69.1 °F 87% 29.94 in 10.0 mi SSE 4.6 mph - N/A   Partly Cloudy
2:54 AM 73.0 °F - 69.1 °F 87% 29.94 in 10.0 mi SE 5.8 mph - N/A   Overcast
3:54 AM 73.9 °F - 70.0 °F 87% 29.93 in 10.0 mi Calm Calm - N/A   Overcast
4:54 AM 72.0 °F - 68.0 °F 87% 29.93 in 10.0 mi SSE 4.6 mph - N/A   Clear
5:54 AM 71.1 °F - 66.9 °F 87% 29.94 in 10.0 mi SE 6.9 mph - N/A   Clear
6:54 AM 73.0 °F - 68.0 °F 84% 29.95 in 10.0 mi SE 5.8 mph - N/A   Partly Cloudy
7:54 AM 80.1 °F 83.2 °F 70.0 °F 71% 29.97 in 10.0 mi Calm Calm - N/A   Partly Cloudy
8:54 AM 82.9 °F 87.0 °F 70.0 °F 65% 29.98 in 10.0 mi North 5.8 mph - N/A   Partly Cloudy
9:54 AM 84.9 °F 90.7 °F 72.0 °F 65% 29.98 in 10.0 mi North 9.2 mph - N/A   Partly Cloudy
10:54 AM 87.1 °F 93.6 °F 72.0 °F 61% 29.97 in 10.0 mi NNE 13.8 mph - N/A   Scattered Clouds
11:54 AM 86.0 °F 92.2 °F 72.0 °F 63% 29.96 in 10.0 mi NNE 13.8 mph - N/A   Partly Cloudy
12:54 PM 87.1 °F 93.6 °F 72.0 °F 61% 29.94 in 10.0 mi NNE 16.1 mph - N/A   Scattered Clouds
1:54 PM 88.0 °F 92.9 °F 70.0 °F 55% 29.92 in 10.0 mi NNE 18.4 mph - N/A   Scattered Clouds
2:54 PM 88.0 °F 92.9 °F 70.0 °F 55% 29.91 in 10.0 mi NNE 17.3 mph - N/A   Mostly Cloudy
3:54 PM 87.1 °F 92.8 °F 71.1 °F 59% 29.90 in 10.0 mi NNE 16.1 mph - N/A   Scattered Clouds
4:54 PM 84.9 °F 90.1 °F 71.1 °F 63% 29.91 in 10.0 mi NNE 16.1 mph - N/A   Partly Cloudy
5:54 PM 82.0 °F 85.9 °F 70.0 °F 67% 29.93 in 10.0 mi NE 12.7 mph - N/A   Scattered Clouds
6:54 PM 80.1 °F 83.6 °F 71.1 °F 74% 29.95 in 10.0 mi NE 9.2 mph - N/A   Scattered Clouds
7:54 PM 79.0 °F - 70.0 °F 74% 29.96 in 10.0 mi NE 6.9 mph - N/A   Partly Cloudy
8:54 PM 79.0 °F - 69.1 °F 72% 29.98 in 10.0 mi NE 8.1 mph - N/A   Clear
9:54 PM 75.0 °F - 69.1 °F 82% 29.98 in 10.0 mi East 4.6 mph - N/A   Clear
10:54 PM 75.9 °F - 68.0 °F 76% 29.98 in 10.0 mi Calm Calm - N/A   Clear
11:54 PM 73.0 °F - 68.0 °F 84% 29.97 in 10.0 mi Calm Calm - N/A   Clear